User: anonymous   Login
Location: Moonridge Observatory
(39.2268°N, 77.7914°W)
Time: 00:30:43
(UTC-04:00)
Language:

CZ-2C R/B - Orbit

View from above orbital plane
View from above orbital plane
View from above satellite
View from above satellite

Ground track
Ground track

The orbit data is extracted from the following two-line orbital elements,

1 28480U 04046B   14295.79252701  .00000501  00000-0  20672-3 0  4700
2 28480 098.1077 082.0699 0142406 204.0160 286.5026 14.25356021516268
Epoch (UTC): 22 October 2014 19:01:14
Eccentricity: 0.0142406
inclination: 98.1077°
perigee height: 705 km
apogee height: 909 km
right ascension of ascending node: 82.0699°
argument of perigee: 204.0160°
revolutions per day: 14.25356021
mean anomaly at epoch: 286.5026°
orbit number at epoch: 51626

The dashed part of the orbit path shows where the satellite is in the earth's shadow,  

DLR